TimeEST,TemperatureF,Dew PointF,Humidity,Sea Level PressureIn,VisibilityMPH,Wind Direction,Wind SpeedMPH,Gust SpeedMPH,PrecipitationIn,Events,Conditions,WindDirDegrees,DateUTC
12:53 AM,1.9,-4.0,76,30.48,10.0,South,6.9,-,N/A,,Clear,180,2014-02-12 05:53:00
1:53 AM,-0.0,-5.1,79,30.45,10.0,South,6.9,-,N/A,,Clear,170,2014-02-12 06:53:00
2:53 AM,-0.0,-5.1,79,30.45,10.0,South,3.5,-,N/A,,Clear,180,2014-02-12 07:53:00
3:53 AM,-2.0,-8.0,76,30.43,10.0,Calm,Calm,-,N/A,,Clear,0,2014-02-12 08:53:00
4:53 AM,-2.0,-8.0,76,30.43,10.0,Calm,Calm,-,N/A,,Clear,0,2014-02-12 09:53:00
5:53 AM,-11.0,-16.1,78,30.44,9.0,South,3.5,-,N/A,,Clear,180,2014-02-12 10:53:00
6:53 AM,-8.0,-14.1,75,30.43,8.0,Calm,Calm,-,N/A,,Clear,0,2014-02-12 11:53:00
7:53 AM,-6.0,-11.0,79,30.40,8.0,East,3.5,-,N/A,,Clear,100,2014-02-12 12:53:00
8:53 AM,-2.0,-4.0,91,30.38,6.0,Calm,Calm,-,N/A,,Clear,0,2014-02-12 13:53:00
9:53 AM,3.9,-0.0,84,30.37,7.0,South,4.6,-,N/A,,Clear,180,2014-02-12 14:53:00
10:53 AM,12.0,3.9,70,30.36,10.0,South,4.6,-,N/A,,Clear,180,2014-02-12 15:53:00
11:53 AM,17.1,5.0,59,30.32,10.0,South,8.1,-,N/A,,Clear,180,2014-02-12 16:53:00
12:53 PM,19.9,3.9,50,30.26,10.0,South,6.9,-,N/A,,Clear,190,2014-02-12 17:53:00
1:53 PM,23.0,6.1,48,30.22,10.0,South,8.1,-,N/A,,Clear,170,2014-02-12 18:53:00
2:53 PM,24.1,3.9,42,30.18,10.0,SW,5.8,-,N/A,,Clear,220,2014-02-12 19:53:00
3:53 PM,24.1,5.0,44,30.17,10.0,South,8.1,-,N/A,,Partly Cloudy,170,2014-02-12 20:53:00
4:53 PM,25.0,3.0,39,30.16,10.0,South,5.8,-,N/A,,Scattered Clouds,190,2014-02-12 21:53:00
5:53 PM,23.0,1.9,40,30.17,10.0,SSW,3.5,-,N/A,,Overcast,200,2014-02-12 22:53:00
6:53 PM,21.0,5.0,50,30.17,10.0,South,5.8,-,N/A,,Overcast,180,2014-02-12 23:53:00
7:53 PM,19.9,3.0,48,30.17,10.0,SSW,5.8,-,N/A,,Mostly Cloudy,200,2014-02-13 00:53:00
8:53 PM,19.9,3.9,50,30.18,10.0,South,4.6,-,N/A,,Overcast,190,2014-02-13 01:53:00
9:53 PM,19.9,6.1,55,30.15,10.0,South,6.9,-,N/A,,Overcast,180,2014-02-13 02:53:00
10:53 PM,19.0,6.1,57,30.12,10.0,South,3.5,-,N/A,,Overcast,180,2014-02-13 03:53:00
11:53 PM,18.0,9.0,68,30.10,10.0,Calm,Calm,-,N/A,,Overcast,0,2014-02-13 04:53:00